Home   Weather   Wagga Wagga   Past weeks

Flag for Australia Past Weather in Wagga Wagga, New South Wales, Australia — Yesterday and Last 2 Weeks

Now
64 °F

Clear.


Feels Like: 64 °F
Forecast: 54 / 88 °F
Wind: 8 mph from West

Location: Wagga Airport

Current Time: Jan 20, 2017 at 11:26:08 pm

Latest Report: Jan 20, 2017 at 11:00 pm


Visibility: N/A

Pressure: 29.62 "Hg

Humidity: 60%

Dew Point: 50 °F

Location of Wagga WaggaLocation

Past Weather in Wagga Wagga — Graph

°F

Wagga Wagga Temperature Yesterday

Maximum temperature yesterday: 93 °F (at 4:00 pm)
Minimum temperature yesterday: 64 °F (at 2:30 am)
Average temperature yesterday: 78 °F

High & Low Weather Summary for the Past Weeks

 TemperatureHumidityPressure
High106 °F (Jan 17, 4:27 pm)100% (Jan 14, 12:00 am)30.01 "Hg (Jan 14, 12:00 am)
Low54 °F (Jan 15, 3:00 am)5% (Jan 11, 4:22 pm)29.39 "Hg (Jan 20, 1:30 pm)
Average80 °F46%29.78 "Hg
* Reported Jan 5 10:00 pm — Jan 20 10:00 pm, Wagga Wagga, Weather by CustomWeather, © 2017

Note: Actual official high and low records may vary slightly from our data, if they occured in-between our weather recording intervals... More about our weather records

Advertising

Wagga Wagga Weather History for the Previous 24 Hours

Scroll right to see more
 ConditionsComfort  
Time TempWeatherWind HumidityBarometerVisibility
10:00 pm
Fri, Jan 20
66 °FClear.17 mph52%29.59 "HgN/A
9:00 pm68 °FClear.15 mph49%29.56 "HgN/A
8:30 pm70 °FClear.24 mph50%29.53 "HgN/A
8:00 pm72 °FSunny.25 mph47%29.50 "HgN/A
7:00 pm77 °FSunny.26 mph42%29.47 "HgN/A
6:00 pm81 °FScattered clouds.23 mph45%29.45 "HgN/A
5:26 pm81 °FScattered clouds.22 mph48%29.45 "HgN/A
5:00 pm79 °FScattered clouds.22 mph54%29.45 "HgN/A
4:15 pm79 °FPartly sunny.24 mph58%29.45 "HgN/A
4:00 pm77 °FPartly sunny.23 mph61%29.45 "HgN/A
3:00 pm75 °FBroken clouds.24 mph78%29.42 "HgN/A
2:08 pm75 °FScattered showers. Broken clouds.25 mph83%29.39 "HgN/A
1:30 pm77 °FSprinkles. Partly sunny.16 mph89%29.39 "Hg6 mi
1:00 pm75 °FSprinkles. Partly sunny.16 mph94%29.42 "HgN/A
12:30 pm75 °FScattered showers. More clouds than sun.20 mph94%29.42 "HgN/A
12:12 pm73 °FSprinkles. Broken clouds.12 mph100%29.45 "Hg4 mi
12:00 pm75 °FLots of rain. Broken clouds.13 mph89%29.42 "Hg3 mi
11:57 am77 °FRain showers. Partly sunny.13 mph79%29.42 "Hg3 mi
11:00 am81 °FPartly sunny.15 mph58%29.45 "HgN/A
10:00 am77 °FBroken clouds.10 mph74%29.47 "HgN/A
9:00 am75 °FBroken clouds.8 mph78%29.47 "HgN/A
8:00 am72 °FBroken clouds.6 mph78%29.50 "HgN/A
7:35 am72 °FBroken clouds.6 mph73%29.50 "Hg4 mi
7:00 am72 °FOvercast.8 mph65%29.47 "HgN/A
6:00 am70 °FPassing clouds.12 mph64%29.45 "HgN/A
5:00 am70 °FPassing clouds.13 mph60%29.47 "HgN/A
4:00 am70 °FPassing clouds.17 mph60%29.50 "HgN/A
3:00 am70 °FClear.13 mph60%29.56 "HgN/A
2:00 am72 °FClear.14 mph57%29.56 "HgN/A
1:00 am72 °FClear.13 mph57%29.59 "HgN/A
12:00 am75 °FClear.13 mph50%29.62 "HgN/A
11:00 pm
Thu, Jan 19
79 °FClear.10 mph42%29.65 "HgN/A
Weather by CustomWeather, © 2017

See weather overviewHow to use our weather pages